Tracking 22779 objects as of 14-Apr-2021
HD Live streaming from Space Station
objects crossing your sky now

USA 276

Track USA 276 now!
10-day predictions
USA 276 is classified as:


NORAD ID: 42689
Int'l Code: 2017-022A
Perigee: 385.9 km
Apogee: 400.7 km
Inclination: 50.0 °
Period: 92.3 minutes
Semi major axis: 6764 km
RCS: Unknown
Launch date: May 1, 2017
Source: United States (US)
Launch site: AIR FORCE EASTERN TEST RANGE (AFETR)
aabbcc
Your satellite tracking list
Your tracking list is empty




NASA's NSSDC Master Catalog

Two Line Element Set (TLE):
1 42689U 17022A   21095.83732946 0.00009000  00000-0  10634-3 0    09
2 42689  50.0030  26.4029 0010939  16.8356 343.1642 15.60514363    00
Source of the keplerian elements: McCants